ECMWFFLT1_250_spd_096.txt.gz
Wind_Speed
47 47 47 47 48 49 50 52 54 55 56 58 59 59 60 60 60 60 60 60 60 60 59 59 58 57 56 55 54 53 51 50 48 47 45 43 42 39 37 37 36 36 36 35 36 36 37 38 35 30 29 32 37 41 44 43 41 39 38 36 35 34 35
46 46 46 47 49 50 51 53 54 55 56 57 58 58 59 59 59 59 59 59 59 59 58 58 57 56 55 54 53 52 50 49 47 46 45 43 42 41 39 37 37 37 36 36 36 36 36 38 39 35 31 31 34 38 43 46 45 42 39 37 36 36 36
45 46 48 49 51 53 54 56 57 58 58 59 59 59 59 59 59 59 59 59 59 58 58 57 56 55 54 53 52 51 50 48 47 46 45 44 43 42 41 39 39 38 38 37 36 36 37 38 40 40 35 34 35 35 39 45 47 46 43 39 38 38 38
48 49 52 53 55 57 58 59 60 62 62 62 62 61 61 61 60 60 60 60 59 59 58 58 57 56 55 53 52 51 50 49 48 47 47 46 45 44 43 42 41 40 40 40 39 38 38 38 40 42 40 37 38 37 36 40 45 48 47 44 41 40 40
52 54 56 58 59 60 61 63 64 65 65 64 63 63 63 62 62 62 62 62 61 61 60 60 59 58 57 55 54 53 52 51 50 50 49 48 47 47 46 44 44 43 41 41 41 40 39 39 40 42 42 39 40 41 39 39 42 46 48 49 46 43 41
56 58 59 61 62 63 65 66 67 67 66 65 64 64 64 64 64 64 63 63 63 62 62 61 61 60 59 58 56 55 54 53 53 52 51 50 50 49 48 48 46 45 44 42 42 41 40 39 39 41 43 42 41 42 42 41 42 44 46 49 50 48 45
60 61 62 64 65 66 67 68 68 67 66 65 65 65 66 65 65 64 64 64 63 63 63 62 62 61 60 59 58 57 56 55 55 54 53 52 52 51 50 50 49 48 47 46 44 43 41 40 40 40 41 43 43 42 42 43 43 44 45 47 50 51 49
63 65 66 67 68 68 69 69 68 67 65 65 66 66 66 65 65 64 63 63 63 62 62 62 61 61 60 59 59 58 57 56 56 55 54 54 53 53 52 51 51 50 50 48 47 45 43 41 41 40 40 42 43 44 43 43 44 45 45 46 48 51 51
67 67 68 69 69 70 69 69 67 65 64 64 65 65 64 64 63 62 62 62 62 61 61 61 60 60 59 58 58 57 56 56 55 55 54 54 54 54 54 53 52 52 51 50 48 47 46 44 43 42 41 41 43 45 45 44 45 47 46 46 47 50 51
67 68 69 69 70 70 69 67 65 63 63 63 63 63 62 62 61 61 61 61 61 60 60 60 60 59 59 58 57 56 55 55 54 54 54 54 55 55 54 54 54 53 52 51 49 48 47 47 46 45 44 43 43 44 47 47 47 48 47 46 48 49 49
67 68 69 69 69 68 67 65 63 62 62 62 61 61 60 60 60 60 60 60 60 60 60 60 60 59 59 58 57 56 55 54 54 54 54 54 55 55 55 55 54 54 53 52 51 50 49 48 48 48 47 47 45 45 47 48 50 52 49 47 48 49 48
67 67 68 68 67 66 64 62 61 61 61 61 60 60 60 60 60 61 61 60 60 60 60 60 60 59 58 57 56 55 55 54 54 53 54 54 55 55 55 55 55 55 54 53 52 51 50 49 49 49 49 49 48 47 47 48 50 55 54 49 49 50 50
66 67 67 66 65 63 62 62 61 61 60 60 60 60 60 60 61 61 61 61 61 60 60 60 59 58 57 56 56 55 55 55 54 54 54 54 55 55 55 56 56 56 55 54 54 53 52 51 51 51 51 51 50 48 47 46 47 54 57 53 51 51 52
66 66 65 64 63 62 62 62 61 60 60 60 60 61 61 61 61 61 61 61 61 60 60 59 59 58 57 55 56 56 56 56 56 55 55 55 56 56 56 56 56 57 56 56 56 55 54 54 53 53 52 52 52 50 48 46 45 50 56 56 53 54 53
64 63 62 62 62 61 61 61 60 60 61 61 61 61 61 61 61 61 61 61 60 60 59 59 58 58 57 56 57 57 57 58 57 57 57 57 57 57 58 58 58 58 58 58 58 57 57 56 55 55 54 52 52 51 50 48 46 47 53 56 55 56 56
61 60 60 60 60 60 60 60 61 61 61 61 61 61 61 61 61 61 61 60 59 59 59 58 58 58 57 57 58 59 59 59 59 59 59 59 59 59 59 60 60 60 60 60 60 59 59 58 57 56 55 54 52 52 51 50 49 48 51 55 56 56 57
59 59 59 59 59 59 60 60 60 60 60 60 60 60 60 61 61 61 60 59 59 58 58 58 58 58 58 59 60 60 60 61 60 60 60 60 61 61 61 62 62 62 62 62 62 61 61 60 59 57 56 55 54 53 53 52 52 52 52 55 58 57 58
59 59 59 59 58 58 58 58 58 58 58 58 59 60 60 61 60 60 59 58 58 57 57 57 58 58 59 59 60 61 61 62 62 62 62 62 62 63 63 63 63 63 64 64 63 63 63 62 61 59 57 57 56 56 56 56 54 54 54 56 59 60 59
60 59 59 58 58 58 58 57 57 57 58 59 60 60 60 60 59 59 58 57 56 56 55 56 56 57 58 59 60 61 62 63 63 64 64 64 64 64 64 63 64 64 65 66 66 65 65 65 64 63 61 60 60 60 60 60 59 57 56 57 59 61 61
59 59 58 58 58 58 58 58 58 59 60 60 60 60 60 59 59 58 57 56 55 55 54 55 55 57 58 59 61 62 64 65 66 66 66 66 65 64 64 63 63 64 65 66 67 67 67 67 67 67 66 64 64 63 63 63 62 61 59 58 60 62 63
58 58 58 58 58 58 59 59 60 60 60 60 60 60 59 59 58 58 57 56 56 55 55 56 57 58 59 61 62 64 66 67 68 68 67 66 65 64 63 63 62 63 64 65 66 67 68 68 68 69 69 67 66 65 65 64 64 63 61 60 61 63 64
58 58 58 58 59 59 59 60 60 60 60 60 60 60 60 59 59 58 58 57 57 57 58 58 59 61 62 63 64 65 66 67 66 66 65 64 63 63 63 63 63 64 64 65 66 67 68 69 69 69 69 69 69 68 66 66 65 65 63 62 62 64 65
59 59 59 59 60 60 60 60 60 60 60 60 60 60 60 60 60 59 59 59 59 59 60 61 62 63 64 65 65 65 65 64 63 63 63 63 64 64 64 65 65 65 66 66 67 68 69 70 70 69 69 69 69 69 68 67 67 66 65 64 64 65 66
61 61 61 61 60 60 61 60 60 60 60 60 61 61 61 61 61 60 60 61 61 61 62 63 64 65 65 65 65 64 63 63 62 62 63 63 64 65 66 66 67 67 67 68 68 69 70 71 71 71 71 70 69 69 68 68 68 67 66 65 65 66 66
63 64 64 63 63 62 62 62 62 61 61 62 62 62 62 62 62 62 62 62 63 64 64 65 65 66 65 65 64 64 64 63 63 63 64 65 65 66 67 69 69 70 70 71 71 72 73 74 74 74 74 73 72 71 69 68 68 68 68 67 66 67 68
63 65 66 66 65 65 64 64 63 63 63 63 63 63 63 63 63 63 63 63 64 65 66 66 66 66 66 65 64 64 64 65 65 66 66 67 68 69 70 71 72 73 74 75 75 76 76 77 77 77 77 77 76 75 73 70 68 68 69 70 68 68 70
63 65 66 66 66 65 65 64 64 64 64 64 64 63 63 63 63 63 63 64 65 66 67 67 67 66 66 65 65 65 66 67 67 68 69 69 70 71 72 73 75 76 77 78 79 79 79 79 79 79 78 78 77 76 75 73 71 69 69 70 71 71 72
63 65 66 66 66 65 64 64 64 64 64 63 63 62 62 62 62 63 64 65 66 66 67 67 67 66 66 66 67 67 68 68 69 70 70 72 73 74 75 76 77 78 79 79 79 79 78 78 78 77 77 76 76 76 75 74 72 71 68 68 70 73 75
65 66 67 66 65 64 64 64 64 63 62 61 61 61 61 61 62 63 64 65 66 66 66 66 66 66 67 67 68 69 70 71 71 73 74 75 77 77 78 78 77 77 77 77 77 76 76 75 74 73 73 73 73 74 75 75 73 71 68 66 67 71 75
66 67 67 66 64 64 63 63 62 61 60 59 59 60 61 62 63 65 65 66 66 66 66 66 66 67 68 69 70 71 72 74 75 77 78 79 79 79 78 77 76 75 75 74 74 74 73 72 70 69 68 67 68 70 71 73 72 70 68 65 64 66 71
67 68 66 64 63 63 62 62 60 59 58 59 60 61 62 63 65 65 66 66 66 66 66 66 67 68 69 71 72 74 76 77 78 79 79 79 79 78 78 77 76 75 74 73 72 71 69 68 66 65 63 62 63 65 66 67 68 67 66 64 63 63 66
68 67 65 63 62 62 60 59 57 58 58 59 60 62 63 64 65 66 66 66 66 66 66 67 68 69 71 73 74 76 78 78 78 78 78 78 78 77 77 76 75 74 72 71 69 68 66 65 63 62 60 59 59 59 61 62 62 63 62 61 60 61 62
68 65 63 62 61 59 57 56 57 58 59 60 61 63 64 64 65 65 65 66 66 67 67 68 70 71 73 75 76 77 77 77 77 77 76 76 76 76 75 74 72 71 69 68 67 66 66 65 63 60 58 57 56 56 57 57 57 56 56 57 56 56 58
66 63 62 61 59 57 56 56 57 59 60 61 62 63 64 64 64 65 65 66 67 68 69 70 71 73 74 75 76 76 75 75 75 75 75 74 73 72 71 70 69 68 67 66 65 64 63 62 60 58 55 53 51 52 53 54 53 50 49 50 52 52 52
63 62 61 59 57 56 56 57 58 59 61 62 63 64 64 64 65 65 66 67 68 69 71 72 73 74 74 74 74 74 74 74 73 72 71 70 69 68 67 66 65 64 63 61 60 58 57 57 55 52 49 47 45 47 49 50 49 48 44 43 46 48 48
62 61 59 58 56 56 57 58 59 61 62 63 63 63 64 64 65 66 67 68 69 70 72 73 73 74 74 73 73 73 72 71 70 68 66 65 65 65 64 63 61 59 57 55 54 53 52 50 49 47 43 41 40 41 44 45 44 44 42 40 40 43 45
61 60 58 57 57 57 58 59 60 62 62 63 63 63 63 64 65 66 67 69 70 71 72 72 73 73 73 73 72 71 69 67 65 63 62 62 61 61 61 59 56 54 51 51 50 49 48 45 44 42 39 37 35 35 37 39 39 38 39 38 37 38 41

ECMWFFLT1_250_spd_102.txt.gz
Wind_Speed
46 49 52 55 58 62 62 60 58 57 56 54 53 53 53 55 56 57 59 61 63 65 68 71 75 78 81 81 82 81 80 78 76 74 72 70 67 63 59 55 51 48 44 42 41 39 39 42 45 42 38 36 37 38 38 38 39 39 40 39 39 38 38
48 52 56 59 61 60 58 57 56 56 55 53 53 53 55 57 59 61 63 65 68 71 74 77 80 83 83 83 83 81 79 77 75 73 71 68 64 61 58 55 52 49 47 44 41 40 38 39 42 45 44 40 39 39 38 40 41 40 41 41 40 39 38
52 55 58 59 57 55 55 55 55 54 54 54 54 56 58 60 62 64 67 70 73 77 80 82 84 85 84 83 82 80 78 76 74 72 69 66 62 59 57 55 53 51 49 47 44 42 40 38 39 42 45 45 44 42 40 40 42 43 43 42 42 41 39
55 56 56 55 54 54 55 55 55 55 55 56 57 59 61 63 65 68 72 75 79 82 84 85 86 85 84 82 81 79 77 75 73 70 67 64 61 59 57 55 54 52 51 49 47 45 43 40 39 40 42 44 46 47 45 43 43 44 44 44 43 43 42
56 56 56 56 55 55 55 55 56 57 57 59 61 62 65 67 70 73 77 80 82 84 86 86 85 84 82 81 79 78 76 74 71 68 66 64 61 59 58 56 55 54 52 51 49 48 46 44 42 41 42 42 44 47 48 47 46 45 44 44 44 45 44
56 55 55 55 55 55 55 56 57 59 61 62 65 67 69 72 75 78 81 83 84 85 86 86 84 82 81 80 78 77 75 72 70 67 65 63 62 60 59 58 56 55 53 52 51 49 48 46 45 44 43 43 44 46 48 49 50 49 47 45 44 45 45
56 55 55 55 56 57 58 60 62 64 66 67 70 72 74 76 79 81 83 84 85 85 85 84 82 81 80 78 77 75 73 70 68 66 64 63 62 61 59 58 57 56 55 53 52 51 49 48 46 45 45 44 44 46 48 50 51 51 50 48 46 46 46
59 59 59 59 60 62 64 66 68 69 70 72 74 75 78 80 82 83 84 84 84 84 83 81 80 79 78 77 75 73 70 68 66 65 64 63 62 61 60 59 58 57 57 55 54 53 51 50 48 46 45 45 45 46 48 50 52 52 52 51 49 47 48
64 64 64 65 66 67 69 70 71 72 74 75 77 79 81 82 83 84 84 83 82 81 80 79 78 77 76 74 72 70 68 66 65 64 64 63 62 61 61 60 60 59 58 57 56 55 54 52 50 48 46 45 45 46 48 50 52 53 52 53 53 50 49
69 69 69 69 70 71 73 73 74 75 77 78 80 82 83 83 84 83 82 81 80 79 78 77 76 75 74 72 70 68 67 66 65 65 64 64 63 63 62 61 61 60 59 58 57 56 55 54 53 51 50 48 46 46 47 49 52 55 54 53 55 55 52
72 72 73 74 75 75 76 77 78 79 80 82 83 83 83 83 82 81 80 79 78 77 76 76 75 74 72 70 68 67 66 66 66 65 65 65 64 64 63 62 62 61 60 59 58 57 57 56 55 54 53 51 50 48 47 47 50 55 56 54 55 56 56
75 75 76 77 77 78 78 79 80 81 82 82 82 82 82 81 80 79 78 78 77 76 76 75 74 72 71 69 68 67 66 66 66 66 66 65 65 64 64 63 63 62 61 60 59 59 58 57 56 56 55 54 52 51 50 48 49 54 57 56 56 57 58
75 76 77 78 78 79 80 80 81 81 81 81 81 80 80 79 78 78 77 77 76 76 75 74 72 71 70 69 67 67 67 67 67 67 66 65 65 64 64 63 63 62 62 61 60 60 59 58 58 57 56 56 54 53 52 50 49 53 57 57 57 59 60
75 76 77 78 78 79 79 80 80 80 80 79 79 79 78 78 77 77 76 76 76 75 73 73 72 71 70 68 68 67 68 68 68 68 67 66 65 64 64 64 64 63 62 62 61 60 60 59 59 58 57 57 56 55 53 52 50 51 56 59 59 60 62
76 76 77 77 78 78 79 79 79 79 79 78 78 78 77 76 76 76 76 75 74 73 73 72 72 71 70 69 68 68 69 70 69 68 67 66 65 65 65 65 65 65 64 63 62 61 60 60 59 59 58 58 58 57 55 54 52 50 53 58 60 60 62
75 76 77 77 77 78 78 78 78 78 78 77 76 76 75 75 75 75 74 73 73 73 73 73 72 71 70 69 69 69 70 70 69 68 67 66 66 65 66 66 66 65 65 64 63 61 60 60 60 59 60 59 59 59 58 56 55 53 53 56 60 61 62
75 76 76 76 77 77 77 77 76 76 75 75 74 74 74 74 74 73 73 73 73 73 73 73 72 72 71 70 70 70 70 70 69 67 66 66 66 66 66 66 65 64 64 63 62 61 60 60 60 60 60 60 60 60 60 59 57 56 55 56 59 61 62
73 74 75 75 75 74 74 74 73 73 73 73 73 73 73 73 73 73 73 73 73 73 73 73 73 73 72 71 71 72 72 71 70 68 67 67 67 66 66 65 64 63 63 62 62 61 61 61 61 61 61 61 61 60 60 59 58 57 56 56 57 59 61
70 71 71 71 71 71 71 71 72 72 72 72 72 72 72 72 72 73 73 74 74 74 74 74 74 74 73 73 73 74 74 73 71 70 69 68 67 66 65 63 63 63 63 63 63 62 62 62 62 62 61 61 60 60 59 58 58 58 57 57 57 58 60
68 68 69 69 69 70 70 70 71 71 71 71 71 71 72 72 73 73 73 73 74 75 75 76 75 74 74 74 75 76 75 74 72 70 69 69 67 66 65 64 64 64 64 64 63 62 62 62 62 62 61 60 59 59 59 58 58 57 57 58 58 58 60
67 67 67 68 68 68 69 69 69 69 70 70 71 71 72 72 73 73 73 74 74 75 76 76 75 74 75 75 76 77 76 74 72 71 70 69 69 67 66 65 64 64 65 65 64 64 63 62 62 63 62 62 61 60 60 60 59 59 59 59 59 60 61
66 66 66 66 67 67 68 68 68 69 69 70 71 71 72 72 73 73 73 74 75 76 76 76 75 75 76 77 78 78 76 74 73 72 71 70 70 68 67 66 65 64 65 65 65 65 65 64 64 64 64 64 64 64 64 63 63 62 62 61 62 63 63
65 65 65 65 65 66 66 67 67 68 69 70 71 71 72 72 72 73 74 75 76 76 76 76 76 77 78 79 79 78 76 74 73 72 71 70 69 68 67 66 66 65 65 66 66 67 67 67 67 67 67 66 66 66 66 66 66 65 65 65 65 66 66
64 64 64 64 64 65 65 66 67 68 69 70 70 71 72 72 73 74 75 76 77 77 77 78 78 78 79 80 79 78 75 74 72 71 71 70 69 68 68 67 67 67 67 67 68 69 69 69 70 70 69 68 67 66 65 65 65 65 65 65 66 67 68
63 62 62 63 63 64 65 65 66 67 68 69 70 71 72 72 73 74 76 77 77 78 78 78 79 79 80 80 79 76 74 72 72 71 70 69 68 68 68 68 68 69 69 69 70 70 70 70 70 69 69 69 67 66 65 63 61 61 62 63 64 66 67
62 62 62 62 63 63 64 65 66 67 68 69 70 71 72 73 74 75 77 78 78 79 79 79 79 80 80 79 77 75 73 72 71 70 69 68 68 69 69 69 70 70 70 70 69 69 69 68 68 68 68 67 66 65 64 63 61 59 58 58 59 62 64
61 61 61 62 62 63 64 65 66 67 68 68 69 70 72 73 74 76 78 79 79 79 79 79 80 80 79 77 75 73 72 71 70 69 68 68 69 69 70 71 72 71 70 69 68 68 68 67 66 66 65 64 64 63 62 61 60 58 56 55 54 56 59
60 61 61 62 62 63 64 65 66 66 67 68 69 70 71 73 75 77 79 80 80 80 79 79 79 78 77 75 73 72 71 70 69 69 68 69 70 71 71 71 71 71 70 69 68 67 66 64 63 62 62 61 61 60 60 59 57 56 54 52 51 51 52
60 61 62 62 62 63 63 64 65 65 66 68 69 70 72 74 76 78 79 80 80 79 79 78 78 77 75 73 71 71 70 69 69 69 69 70 71 72 72 71 70 70 69 68 66 65 63 61 60 59 59 60 60 60 59 58 56 54 52 49 47 46 46
61 61 61 61 62 62 63 63 64 65 67 68 70 71 73 75 77 78 79 80 80 79 78 77 76 75 73 71 71 70 69 69 69 70 71 72 73 73 72 71 70 69 68 66 64 62 61 60 59 58 59 59 60 60 59 59 58 55 52 48 46 44 43
60 61 60 61 61 61 62 63 65 66 67 69 71 73 75 77 78 78 79 79 79 78 77 76 75 73 71 70 70 69 69 69 70 71 73 73 73 72 71 71 70 68 66 64 62 61 60 59 59 58 58 59 59 59 60 60 59 58 55 52 48 46 44
59 59 59 59 60 61 62 63 65 67 68 70 72 74 76 77 78 78 79 79 79 78 77 75 73 71 70 70 69 69 70 71 72 73 74 73 72 71 71 70 69 67 64 62 61 60 59 59 58 58 58 58 58 58 58 57 56 55 54 52 49 47 45
58 58 59 59 60 61 63 64 66 68 69 71 73 75 77 78 78 79 79 79 79 78 76 74 71 70 69 69 69 70 71 73 74 74 74 73 72 72 71 69 67 64 62 61 60 60 59 58 57 57 56 56 55 54 53 52 51 50 48 46 45 44 43
58 58 59 59 60 62 64 65 67 69 70 72 74 75 77 78 79 79 79 79 78 77 75 72 70 69 69 69 70 71 72 74 75 74 73 72 72 71 69 66 64 62 61 60 59 58 57 56 55 55 54 53 52 49 48 47 46 46 44 42 41 40 39
58 59 59 60 61 63 65 66 68 70 71 73 74 75 77 78 79 79 79 79 78 76 73 70 69 68 68 69 70 71 73 74 74 73 72 72 71 69 66 63 62 61 60 58 57 56 55 54 53 52 52 52 51 48 46 45 44 43 42 41 39 38 36
59 60 61 62 64 65 66 68 69 71 72 73 74 76 77 78 79 79 79 78 77 74 71 68 68 68 68 69 70 71 72 72 71 71 71 70 69 66 63 61 60 59 58 57 55 54 53 52 51 51 51 50 50 48 45 43 42 41 40 39 37 36 34
61 62 63 64 66 66 67 69 70 71 73 74 75 76 78 78 79 79 78 78 76 72 69 68 67 68 68 69 70 71 71 71 70 70 70 68 66 63 61 59 58 57 56 54 53 52 51 51 50 50 50 49 48 46 44 42 40 38 37 36 35 33 32

ECMWFFLT1_250_spd_105.txt.gz
Wind_Speed
50 48 45 47 52 55 54 53 51 51 52 54 57 59 62 66 68 66 64 62 60 60 61 63 66 69 71 73 75 77 79 81 82 83 83 84 83 82 81 80 77 75 70 64 59 55 55 57 59 58 55 51 47 44 43 43 44 45 45 44 42 42 42
51 50 48 48 51 52 52 52 52 52 54 55 58 61 65 67 66 65 63 62 63 65 67 69 71 73 75 77 79 81 82 83 84 83 83 83 82 82 81 80 78 76 71 65 60 55 52 51 53 55 56 55 52 48 45 44 44 44 45 45 44 44 44
49 49 49 49 51 52 53 52 53 53 55 57 60 64 66 66 65 64 64 65 67 69 71 73 75 77 79 81 82 83 84 84 83 83 82 82 81 81 80 79 78 75 71 66 61 57 53 51 50 51 53 55 55 53 50 47 45 44 44 45 45 46 46
49 48 49 50 51 52 53 54 54 55 57 61 66 68 67 66 65 65 67 69 71 72 74 76 78 80 82 83 84 84 84 83 82 82 82 81 81 81 79 78 76 73 69 66 63 59 56 53 51 51 51 52 54 54 53 51 48 46 44 44 45 46 48
50 50 49 50 52 52 54 54 55 58 62 66 69 68 66 66 67 69 71 73 74 76 78 80 81 82 83 84 84 84 83 82 81 81 81 81 80 79 78 77 74 71 68 66 63 60 58 55 53 52 52 52 53 54 53 53 51 49 47 46 45 45 47
51 51 52 53 54 54 55 57 59 63 66 68 67 67 67 69 71 73 74 76 78 80 81 82 83 83 84 84 83 82 81 81 81 80 80 80 80 79 77 76 73 71 68 66 64 62 59 57 54 53 52 52 53 54 54 53 52 51 50 49 47 46 47
53 53 54 54 55 56 58 61 64 66 67 68 68 70 71 73 75 76 78 79 81 82 83 83 84 84 83 83 82 81 80 80 80 80 80 80 79 78 76 75 73 71 69 67 66 64 62 59 56 54 52 52 52 53 54 54 53 52 51 51 50 48 48
55 55 55 56 57 59 62 65 68 70 71 72 73 75 76 77 78 80 81 82 83 83 83 84 83 83 82 81 80 80 79 79 79 80 80 79 78 77 76 74 73 72 70 69 67 66 64 61 58 55 53 52 52 53 54 54 54 52 52 53 53 51 50
56 57 58 60 62 64 66 69 72 74 76 77 78 79 80 80 81 82 83 84 84 84 84 83 82 81 81 80 79 79 79 79 80 80 79 78 77 76 75 75 74 72 71 69 68 67 65 63 60 57 55 52 52 53 54 56 56 53 52 53 54 54 53
59 61 63 65 67 68 70 73 75 77 79 80 81 81 82 83 83 84 84 84 84 83 82 81 80 79 79 78 78 79 79 80 80 79 78 77 77 76 75 75 74 73 72 71 70 68 65 63 60 58 56 54 52 52 53 56 58 57 54 53 54 54 54
63 65 67 69 71 72 74 75 77 78 80 81 82 83 84 84 84 84 83 82 82 81 79 78 78 77 77 77 78 79 80 80 79 78 78 77 77 76 75 75 74 72 71 71 70 67 65 63 61 59 57 56 54 53 52 53 56 59 58 57 56 55 54
65 68 69 71 73 74 76 77 79 80 81 83 83 83 83 82 82 81 80 79 78 77 76 76 76 76 77 78 79 79 79 79 78 78 78 78 77 77 76 74 73 72 71 70 68 66 63 61 60 60 59 58 56 55 54 53 55 57 58 58 59 59 57
65 67 69 70 72 73 75 77 78 79 80 80 80 79 79 78 77 76 75 75 74 74 75 75 75 76 77 78 79 79 79 78 78 78 78 78 78 77 76 74 73 72 71 70 67 64 62 60 60 59 59 59 57 56 55 54 54 56 58 58 59 61 61
66 67 68 69 69 70 72 73 74 74 74 74 74 74 74 73 73 72 72 73 73 73 74 75 76 77 78 78 78 78 78 78 78 78 78 78 78 77 76 74 73 73 71 69 66 63 61 60 59 58 57 57 57 56 55 54 53 55 57 59 59 60 62
66 67 68 68 68 69 69 70 70 70 70 70 70 70 70 70 71 71 72 72 72 73 74 75 76 77 77 78 77 78 78 78 79 79 79 79 78 78 76 75 74 73 71 68 65 63 61 60 59 58 57 56 56 55 54 54 54 54 56 58 59 60 62
66 67 67 67 67 67 68 68 68 68 68 68 68 69 69 70 70 71 71 72 73 74 75 76 76 76 77 77 77 78 78 79 80 80 80 79 79 78 76 75 74 72 70 67 65 64 62 61 60 60 59 58 57 57 56 55 55 55 56 58 60 61 62
65 66 66 66 66 66 67 67 67 67 67 67 68 69 69 70 70 71 72 72 73 74 75 75 75 76 76 77 78 78 79 80 80 80 80 79 78 77 76 75 74 72 70 67 66 65 64 63 62 61 60 60 59 59 59 58 58 58 58 59 61 62 63
63 64 64 65 65 65 65 66 65 66 66 67 68 68 69 69 70 71 72 72 73 73 74 74 75 75 76 77 78 79 80 80 81 80 79 78 77 76 75 75 74 72 70 68 67 66 65 64 63 62 61 61 61 60 60 60 60 61 61 61 63 64 65
61 62 62 63 63 64 64 64 64 65 65 66 67 68 68 69 70 71 71 71 72 72 73 74 75 76 77 78 78 79 80 81 81 80 79 78 76 75 74 74 73 72 70 68 67 66 66 65 64 63 62 62 62 61 61 61 61 62 62 63 64 65 66
59 60 61 61 62 62 63 63 63 64 65 66 66 67 68 68 69 69 70 70 71 72 73 74 75 76 77 77 78 79 80 81 82 81 80 78 76 75 74 73 72 71 70 68 68 67 66 66 65 65 64 64 63 63 63 62 62 62 63 64 64 65 66
57 58 59 60 61 61 61 62 62 63 64 65 65 66 67 67 68 68 69 70 71 72 73 74 75 75 76 77 78 79 81 82 83 82 81 78 76 74 73 72 71 71 71 70 69 68 67 67 67 67 67 66 65 65 64 63 63 63 63 63 64 65 66
56 57 59 60 60 60 60 61 61 62 63 64 64 65 65 66 67 68 69 70 71 72 72 73 74 75 76 77 79 80 81 83 83 82 80 78 76 75 73 72 71 71 72 72 71 70 69 68 68 68 67 67 65 64 63 62 61 60 60 61 62 63 64
56 57 58 59 60 60 60 60 60 61 62 63 63 64 65 66 67 68 69 70 71 71 72 72 73 75 76 78 79 81 82 83 83 82 80 78 76 75 74 72 72 72 72 72 71 71 71 70 69 68 66 64 63 62 60 59 58 57 57 58 59 60 61
56 58 59 60 60 60 60 60 60 61 62 63 63 64 65 66 67 68 69 69 70 70 71 72 73 75 77 78 80 82 83 84 83 81 80 79 77 74 73 72 72 72 72 71 71 71 71 70 69 67 65 64 62 60 58 56 55 55 54 55 56 56 57
58 59 59 60 61 61 60 60 60 61 62 63 63 64 65 66 67 68 68 68 68 69 70 72 73 75 77 79 81 83 83 83 82 81 80 79 76 74 73 73 73 72 71 71 71 71 70 69 68 67 65 64 62 59 57 54 52 51 51 52 52 53 52
59 60 60 61 61 61 61 61 61 61 62 63 64 65 65 66 67 66 66 66 67 68 70 72 73 75 78 80 82 83 83 83 82 81 79 77 75 73 73 73 73 72 71 71 70 70 69 68 68 66 64 62 60 58 56 54 51 49 48 48 48 48 48
60 60 60 60 61 61 60 61 61 62 62 63 64 65 65 65 65 65 65 66 67 69 70 72 74 76 78 81 82 82 83 82 81 80 79 76 74 73 73 72 72 72 71 70 69 69 68 67 65 64 62 60 58 56 55 54 52 49 47 45 43 43 43
59 59 59 59 60 60 60 61 61 62 63 63 64 64 63 63 63 64 65 66 67 69 71 73 75 77 79 80 81 82 82 82 81 80 77 74 73 73 72 72 72 71 70 69 68 67 66 64 62 60 59 58 57 55 54 53 51 47 46 45 42 40 40
57 57 58 58 59 59 60 61 62 62 62 62 62 62 62 62 63 64 65 66 68 69 72 74 76 77 79 80 81 82 82 81 80 78 75 73 73 72 72 72 71 70 69 68 67 65 63 60 59 58 58 57 55 54 54 54 51 48 46 46 43 41 40
56 56 57 58 59 59 60 61 61 61 61 60 60 60 61 62 63 64 65 67 69 71 73 75 76 77 78 79 81 81 81 80 79 76 73 72 73 73 72 72 71 69 69 67 65 62 60 58 57 56 56 55 54 54 55 56 55 51 49 47 44 42 40
55 56 57 58 58 59 59 59 59 59 59 59 59 60 61 62 64 65 67 68 70 72 73 75 76 78 79 80 81 81 81 80 77 74 72 72 72 72 72 72 70 69 67 65 62 59 57 56 55 54 54 53 53 53 54 55 55 53 51 48 44 41 39
56 56 56 57 57 57 58 58 58 58 58 59 59 60 62 64 65 66 67 68 70 72 74 75 77 78 79 81 81 81 80 78 75 73 72 72 72 72 72 71 70 68 65 62 59 57 56 55 53 52 52 51 51 52 52 53 53 51 50 47 44 41 38
55 55 55 56 56 56 57 57 57 58 58 59 60 61 63 64 65 65 66 68 70 72 74 76 77 79 80 81 81 81 79 76 73 72 72 72 72 73 72 70 69 67 63 60 57 56 55 53 52 51 50 50 50 50 51 51 50 49 47 45 42 40 38
54 55 55 55 56 56 57 57 57 58 59 59 60 62 63 63 64 65 66 68 70 72 74 76 78 79 81 81 81 80 78 74 72 72 72 72 72 72 71 70 68 65 61 58 57 56 54 52 50 50 50 49 49 49 49 49 48 45 43 42 40 38 37
54 55 55 55 56 56 57 57 57 58 59 60 61 61 62 63 64 65 67 69 71 73 75 77 78 79 81 81 80 78 75 72 71 71 71 72 72 71 70 69 66 62 59 57 56 55 53 51 49 49 50 50 49 49 48 48 46 44 41 39 37 36 35
54 54 55 55 55 56 56 57 57 58 59 60 61 62 62 63 65 66 67 69 71 73 75 77 78 79 80 79 78 75 72 70 70 70 71 71 71 70 69 67 63 60 58 57 55 53 51 49 48 49 49 50 49 48 48 48 47 44 41 39 36 34 33
54 54 54 55 55 56 57 57 58 59 60 60 61 62 63 64 65 67 68 69 71 73 75 77 78 79 78 78 75 72 70 69 69 69 70 70 69 68 66 63 60 58 57 56 53 51 49 48 47 47 48 48 48 47 47 47 47 45 42 39 36 34 32

ECMWFFLT1_250_spd_111.txt.gz
Wind_Speed
50 50 50 51 51 52 52 53 54 55 56 56 55 55 54 53 52 51 50 50 49 50 51 53 54 55 58 60 62 64 65 67 68 70 72 74 76 79 81 83 84 85 85 83 82 81 81 81 80 80 78 76 74 73 72 73 73 73 72 71 68 65 61
50 50 50 51 52 53 53 54 55 55 55 55 54 54 54 54 53 52 51 51 51 52 53 54 55 57 58 59 61 63 65 67 69 71 73 76 78 80 82 83 83 82 81 79 79 78 78 77 77 76 76 75 74 74 74 74 74 74 73 71 69 66 62
50 50 51 52 53 54 54 55 56 56 55 54 53 53 53 54 54 54 54 55 55 55 56 57 58 59 60 61 63 65 67 69 71 73 75 77 79 80 80 80 79 78 78 77 77 77 77 76 74 74 74 75 76 77 77 77 76 75 74 72 69 65 62
50 50 51 52 53 54 55 56 56 56 55 53 52 52 52 54 55 57 57 58 58 59 59 59 60 61 62 64 66 67 69 71 73 75 76 78 78 78 77 77 76 76 77 77 76 76 74 73 73 74 75 76 77 77 77 78 78 77 75 73 70 67 62
51 50 50 51 52 53 54 54 54 54 53 53 52 52 52 53 54 56 57 58 59 60 60 61 62 63 64 66 68 70 71 73 74 75 75 76 75 75 75 75 76 76 76 75 74 73 72 72 73 75 76 77 77 77 77 77 77 77 75 73 71 68 64
52 50 50 50 51 53 53 53 53 53 53 53 53 53 53 53 54 54 55 57 58 60 61 62 64 65 66 68 70 71 72 72 73 73 74 74 74 74 74 75 75 75 74 73 71 71 71 72 74 75 76 76 76 77 77 77 77 77 75 72 69 66 63
51 50 50 51 52 53 54 54 54 55 55 54 54 54 54 54 54 54 55 56 57 59 61 63 64 65 67 68 69 70 71 71 72 72 73 73 74 74 74 74 73 72 71 71 70 71 72 74 75 76 76 77 77 78 79 78 77 76 75 73 68 64 62
50 50 51 52 53 54 54 55 56 56 56 55 56 56 56 56 56 56 56 57 58 59 61 62 64 65 66 68 69 70 70 71 71 71 72 72 72 73 72 72 71 70 70 70 71 72 74 75 75 75 75 75 77 79 81 80 79 77 74 72 69 65 61
51 51 52 53 53 54 56 57 58 59 59 59 60 59 58 58 58 58 59 59 60 61 62 63 65 66 67 68 68 69 69 70 70 70 71 71 71 71 70 70 70 70 71 71 72 74 75 75 75 75 75 75 76 78 80 81 80 78 75 71 69 67 64
52 53 53 53 54 56 58 59 61 63 63 64 63 61 60 60 59 60 61 61 62 63 64 65 66 66 67 67 68 68 68 69 69 70 69 69 69 69 69 70 70 71 72 73 74 75 75 75 75 75 75 76 76 77 78 79 78 77 74 70 67 66 66
53 54 55 55 57 59 60 62 65 66 66 66 64 63 62 61 62 62 63 63 63 64 65 66 66 66 66 66 67 67 68 68 68 68 68 68 68 69 69 70 71 72 73 74 75 75 75 75 75 75 76 77 78 78 78 78 77 74 72 70 67 63 63
54 56 57 59 61 63 64 65 67 68 67 66 65 65 64 64 64 64 64 65 65 65 65 65 65 65 65 65 65 66 66 67 67 67 67 68 68 69 69 70 72 73 74 75 75 76 76 76 76 76 77 78 79 79 79 77 77 75 70 68 66 64 62
56 58 60 62 63 65 66 66 67 67 67 67 66 66 65 65 65 65 65 65 65 65 64 64 63 63 63 64 64 64 65 66 67 67 68 68 68 69 70 71 73 74 75 75 76 76 76 77 77 77 79 80 80 80 79 77 74 73 71 66 64 63 62
57 59 60 62 63 64 65 66 66 66 67 67 66 66 65 65 65 65 65 64 63 62 62 61 61 61 62 63 63 64 66 66 67 68 68 68 69 70 71 73 74 75 75 75 76 77 77 77 78 79 80 81 81 80 78 75 71 69 68 67 64 63 62
58 59 60 62 63 64 65 65 65 66 66 66 65 65 64 64 63 63 62 61 60 60 59 59 60 61 62 64 65 66 67 67 67 68 68 69 69 71 72 73 74 74 75 76 76 77 78 78 79 81 82 82 82 80 76 72 68 66 65 66 65 63 62
58 59 61 62 63 64 64 65 65 65 64 64 63 62 62 61 61 60 60 59 58 58 59 60 62 63 65 66 67 67 67 67 67 68 68 69 70 71 72 73 74 75 75 76 77 78 79 80 81 82 82 83 81 79 74 70 67 65 64 65 65 63 62
60 60 61 62 63 63 63 63 63 62 62 61 60 60 60 59 59 59 58 58 58 59 61 63 65 66 67 67 67 67 67 67 67 67 68 69 70 71 72 73 74 75 76 77 78 79 79 80 81 82 83 82 80 77 74 71 68 66 64 63 63 62 60
61 61 61 62 63 63 62 62 61 60 60 60 60 59 59 59 58 58 58 59 60 62 64 65 67 67 67 66 66 66 66 66 66 68 69 70 70 71 72 73 74 75 76 77 78 79 80 81 82 83 83 81 79 76 73 72 70 68 65 62 61 60 59
61 61 62 62 62 61 61 60 60 60 60 60 60 59 58 58 58 59 60 61 63 65 66 66 66 66 65 65 64 65 65 65 66 67 68 69 70 71 72 73 75 76 77 78 79 80 81 82 82 83 82 80 77 75 74 73 70 68 65 62 59 58 58
60 60 60 61 61 60 60 60 60 61 61 60 59 58 58 58 59 60 62 63 65 66 66 66 65 64 63 63 63 64 64 65 66 67 68 69 70 71 72 73 75 76 78 79 80 81 81 82 83 82 81 78 76 75 74 72 69 66 64 62 59 57 56
59 59 60 61 61 61 61 60 60 60 59 58 57 57 59 60 61 62 63 65 65 65 64 64 63 62 62 62 63 63 64 65 66 67 68 70 71 72 73 74 76 77 78 79 80 81 81 82 83 82 79 77 75 74 73 70 67 65 62 60 58 56 56
60 61 61 61 61 60 59 57 56 56 56 56 57 59 60 61 62 63 64 64 64 63 63 62 61 61 61 62 62 63 64 65 66 67 68 69 71 72 73 75 76 78 79 80 80 80 81 82 81 79 77 75 74 73 70 67 64 62 60 58 57 56 55
60 60 60 60 59 57 55 53 54 54 55 57 59 60 61 62 63 63 63 63 62 62 62 61 61 61 61 61 62 63 64 65 66 67 68 69 70 72 74 75 77 78 80 80 81 81 82 82 80 78 76 74 72 69 66 64 62 59 57 57 55 54 54
57 57 56 56 55 53 52 52 53 55 56 59 60 61 62 62 62 62 62 61 61 61 61 61 61 61 61 61 62 63 64 65 66 67 68 69 71 72 74 75 77 79 80 81 82 83 83 82 80 78 76 74 71 67 63 61 59 57 56 55 54 53 52
53 52 52 52 51 50 51 53 54 56 58 60 61 61 61 61 61 61 61 61 61 61 61 61 61 61 61 62 63 63 64 64 65 67 68 70 71 73 74 76 77 79 80 81 83 84 83 82 79 77 76 74 70 67 63 60 57 55 54 52 52 52 50
50 50 50 51 51 51 53 55 56 57 58 59 59 59 59 60 60 60 61 61 62 62 61 61 61 61 61 62 62 63 63 64 66 67 69 70 72 73 74 76 77 78 79 81 83 83 82 81 79 78 76 73 70 68 65 62 59 56 53 50 49 49 48
48 49 50 52 52 53 55 56 56 56 56 57 58 58 59 60 61 62 62 62 62 62 61 60 60 60 61 61 62 62 64 65 66 68 69 70 72 73 75 76 76 77 79 81 82 81 80 79 79 78 76 73 71 69 66 63 61 58 54 51 49 48 47
49 50 51 53 54 55 55 55 55 55 55 57 58 60 61 62 62 62 62 62 61 60 60 59 59 60 60 60 61 63 64 65 67 68 69 71 72 73 74 75 76 77 79 80 80 79 78 78 78 76 74 72 70 68 65 62 59 56 53 50 48 47 45
50 51 53 55 55 55 55 55 55 55 56 58 60 61 62 62 62 62 61 60 59 59 58 59 59 59 60 61 62 63 64 65 67 68 70 71 72 73 74 74 75 77 78 78 77 77 76 76 76 74 72 71 69 67 65 62 59 56 52 50 49 48 46
52 53 54 55 55 55 55 55 56 57 58 59 61 62 62 61 61 60 59 58 57 57 58 58 58 59 60 61 62 63 64 66 68 69 71 71 72 72 73 74 75 76 76 76 75 75 75 75 73 72 71 69 67 65 63 62 60 57 54 52 52 51 49
53 54 54 55 55 55 55 56 57 58 59 60 61 61 60 59 58 57 57 56 56 57 57 57 58 59 60 61 62 64 65 67 68 70 71 71 71 71 72 73 74 75 74 74 74 74 73 72 71 70 69 67 64 62 60 58 57 55 53 53 53 52 51
54 53 53 54 55 55 56 57 58 59 59 59 59 58 58 57 56 55 55 55 56 56 57 57 58 59 61 62 63 65 66 67 69 70 70 70 70 71 72 73 73 73 72 72 72 72 72 70 69 69 67 64 61 60 57 54 52 50 49 48 49 49 48
53 53 53 54 55 56 57 57 57 57 57 57 56 56 55 54 54 53 54 55 55 56 57 58 59 61 62 63 64 65 67 68 69 69 69 69 69 70 71 71 71 70 70 70 70 70 70 69 69 67 64 61 58 56 54 52 49 47 45 44 44 44 44
53 53 54 55 56 56 56 55 54 54 54 54 53 53 53 53 53 54 55 55 56 57 58 59 60 62 63 64 65 66 67 68 68 68 68 68 69 70 70 69 69 68 67 68 69 69 69 68 68 66 62 58 56 53 51 49 48 46 43 42 41 42 42
53 53 54 55 55 55 54 53 52 52 52 52 52 52 52 53 53 55 56 56 57 58 59 60 61 62 63 64 65 66 67 68 67 67 67 68 69 68 68 67 66 65 65 66 67 68 68 68 67 64 60 57 55 52 50 48 47 45 42 40 40 40 40
51 52 53 54 54 54 53 52 52 52 51 52 52 52 53 54 55 56 57 57 58 58 59 61 62 62 63 64 65 66 67 67 66 66 67 68 67 67 67 66 64 63 63 64 66 67 67 67 65 62 59 56 54 52 50 48 46 44 42 40 40 39 39
51 52 53 54 54 54 54 53 52 52 52 53 53 53 54 55 57 58 58 59 59 59 60 61 62 63 64 64 65 66 66 66 66 66 66 66 66 66 65 63 61 61 62 63 64 66 66 66 63 59 57 55 53 51 49 48 46 45 43 41 40 39 38

ECMWFFLT1_250_spd_114.txt.gz
Wind_Speed
49 49 50 50 50 50 50 49 49 49 50 50 50 50 50 50 49 49 49 49 50 51 51 51 51 51 52 53 55 58 60 61 63 64 65 67 68 70 71 73 74 74 75 75 75 76 76 76 76 75 74 72 71 70 70 69 70 70 72 73 73 73 72
50 49 50 50 50 49 49 49 49 49 49 49 49 49 49 48 47 47 47 48 49 50 50 51 51 51 52 54 56 58 59 61 62 64 65 67 68 70 71 72 73 73 73 74 74 74 74 74 74 75 74 73 71 70 70 70 71 72 73 74 73 73 72
49 50 50 50 50 49 49 49 48 48 48 47 47 47 47 46 46 46 47 48 49 50 52 52 53 54 55 57 59 59 60 61 63 64 65 67 68 69 70 71 71 72 72 72 72 72 71 71 71 72 72 73 73 73 73 74 74 75 75 75 74 74 74
49 49 50 51 51 50 49 49 48 47 47 47 47 47 47 47 47 47 48 50 52 53 55 55 56 57 58 59 60 60 61 62 63 64 65 66 67 68 69 70 70 70 70 70 70 70 70 70 70 71 72 73 73 74 75 76 77 77 76 75 75 76 76
48 48 50 50 51 50 49 48 47 47 47 47 47 47 47 48 48 49 51 52 54 56 56 57 58 59 59 60 61 61 62 63 63 64 64 65 66 67 68 68 68 68 68 68 68 69 69 70 71 72 72 73 74 75 76 76 77 77 76 76 77 77 78
45 47 48 49 50 49 48 47 46 46 46 46 47 47 48 48 49 51 52 54 56 57 58 59 60 61 62 62 62 63 63 63 62 62 63 64 64 65 66 66 66 67 67 68 68 69 70 71 72 72 73 74 75 76 76 76 76 77 77 77 78 79 80
43 44 45 46 46 46 46 45 45 45 46 46 47 47 48 49 50 51 53 55 57 60 61 63 64 64 64 64 64 64 63 62 61 61 62 63 63 64 64 65 66 67 68 69 70 70 71 71 72 73 74 75 76 77 77 76 76 77 78 80 80 81 81
40 41 42 42 43 43 43 43 44 45 46 47 48 49 50 50 51 53 56 58 61 63 64 65 65 65 65 65 64 63 61 60 60 61 62 62 62 63 64 66 67 69 70 71 71 71 71 72 72 72 73 75 76 78 78 78 78 78 79 81 83 84 83
38 39 40 41 42 42 43 44 45 46 47 49 50 50 51 52 54 56 59 61 62 64 64 64 65 65 65 64 62 61 60 60 60 61 61 62 63 64 66 68 70 71 71 71 71 71 71 71 72 72 73 73 74 75 77 79 80 80 80 81 83 85 85
38 39 41 42 42 43 44 45 47 48 48 49 50 51 52 54 56 58 60 61 62 63 64 65 65 65 64 62 61 60 60 60 61 61 62 63 65 67 69 70 71 71 71 71 71 71 71 71 72 73 73 73 73 73 75 78 80 80 81 82 82 83 84
40 41 42 43 44 44 45 46 47 48 48 49 50 52 54 56 58 60 61 62 63 64 65 66 65 64 62 61 60 60 60 61 62 63 65 66 68 69 70 70 70 70 70 70 70 71 71 72 72 72 72 73 73 74 75 77 80 81 81 82 82 80 80
41 42 43 44 45 45 46 46 47 48 49 50 52 54 56 58 59 60 61 63 64 65 66 65 64 62 61 61 61 61 62 63 64 65 67 68 69 70 70 70 69 69 70 70 70 71 71 72 72 72 73 73 74 75 76 77 80 82 81 80 80 79 76
43 44 45 46 47 47 48 48 48 49 51 52 54 56 57 59 60 61 63 64 65 65 64 63 62 62 62 62 62 62 63 64 65 67 68 69 69 69 69 69 69 69 69 70 70 71 71 72 73 73 74 75 75 76 77 78 79 81 82 79 77 76 73
44 46 47 48 49 49 50 50 50 51 53 54 55 57 58 60 61 62 63 64 64 64 64 63 63 63 62 63 63 63 64 65 67 68 68 68 68 68 68 68 68 69 69 70 70 71 72 73 73 74 75 76 76 77 77 78 78 79 80 79 76 74 71
46 48 48 49 50 50 51 52 53 54 55 56 58 59 60 61 62 63 64 64 64 64 64 64 63 63 62 62 63 63 65 66 67 68 68 67 67 67 68 68 69 69 70 70 71 72 73 73 74 75 76 77 78 78 78 78 77 76 76 76 74 73 72
49 50 51 51 51 52 53 54 55 56 57 58 60 61 62 62 63 64 64 64 64 64 64 63 62 61 62 62 63 64 66 67 67 67 67 66 67 67 68 69 69 69 70 71 72 72 73 74 75 76 77 78 79 79 79 78 76 74 73 73 73 72 71
51 52 53 53 54 54 55 56 57 58 59 60 61 62 62 63 63 64 64 63 63 63 62 61 60 61 62 63 64 65 66 66 66 66 66 67 67 68 68 69 69 70 70 71 72 72 73 74 75 76 78 79 79 79 79 77 75 73 71 71 72 72 70
53 54 55 55 56 56 57 58 59 60 60 61 61 62 62 63 63 62 62 62 61 61 60 59 60 61 63 64 65 66 66 66 66 66 67 67 68 68 69 69 69 70 70 71 71 72 73 74 76 77 78 79 79 79 78 77 75 74 72 71 71 70 68
54 55 56 57 57 58 59 60 60 61 61 61 61 61 61 61 61 60 60 60 59 58 58 59 61 63 64 65 65 65 65 66 66 67 67 68 68 69 69 68 69 69 70 71 71 72 74 75 76 77 78 78 79 79 78 77 75 74 74 72 70 68 66
55 56 57 58 58 59 60 60 60 60 60 60 60 59 59 58 58 58 58 57 57 57 59 61 62 64 64 64 64 65 66 66 67 67 67 67 68 68 68 68 68 69 70 70 72 73 75 76 77 77 77 78 78 78 77 76 75 74 73 71 68 66 64
57 57 57 58 59 59 59 59 59 59 59 58 57 56 56 56 55 56 56 56 57 58 60 62 63 63 64 64 65 66 66 66 66 66 66 66 66 66 67 68 68 69 70 71 73 74 75 76 76 76 77 78 78 78 76 74 73 73 72 69 66 64 62
57 57 57 58 58 58 58 58 58 57 56 55 53 53 53 53 54 55 56 57 59 60 61 62 63 63 64 65 66 65 65 65 65 65 65 65 65 66 66 67 68 69 71 72 74 75 75 75 75 76 77 78 77 76 74 73 72 71 69 66 63 61 60
55 56 56 56 56 56 56 56 56 54 53 51 50 50 51 52 54 56 58 59 60 61 62 63 63 64 65 65 65 64 64 64 64 64 64 64 64 65 66 68 69 71 72 73 75 75 76 75 76 77 77 77 75 73 71 72 71 69 66 63 59 57 56
53 54 54 54 55 54 54 54 53 51 50 49 49 50 52 53 56 58 59 61 61 62 63 64 64 64 64 64 63 62 62 62 62 62 62 63 64 65 67 69 70 72 73 74 76 76 76 76 78 79 78 77 74 71 70 70 68 65 63 60 57 54 52
50 51 51 52 52 51 50 50 50 49 48 48 49 51 53 55 57 59 61 62 62 63 63 64 64 63 62 61 61 61 61 60 60 61 61 63 64 66 68 70 71 73 74 76 76 77 77 78 80 80 79 76 73 72 71 68 65 62 59 56 54 52 50
49 49 49 49 48 48 48 49 49 48 48 49 50 52 54 56 58 60 62 62 62 62 62 63 62 61 59 59 59 58 58 58 59 60 62 63 65 67 69 70 72 73 75 76 77 77 78 80 80 79 78 76 74 73 72 68 64 60 57 54 52 51 49
48 48 48 48 48 48 48 48 48 48 49 50 52 53 55 58 59 61 62 62 61 61 61 60 59 58 57 57 57 56 57 58 59 61 62 64 66 68 69 70 72 74 75 76 77 78 79 80 79 78 77 76 75 74 71 68 64 61 57 54 52 50 49
48 48 48 47 47 47 47 47 48 49 50 51 53 54 56 58 59 60 61 61 60 59 58 57 56 55 55 55 55 56 57 59 60 62 63 65 66 68 69 71 72 74 75 76 76 78 79 79 77 77 76 76 75 73 69 66 63 60 57 54 52 50 50
45 45 46 45 46 47 47 47 48 49 50 52 54 56 57 58 59 60 60 59 58 56 55 54 54 54 54 54 55 56 58 60 61 63 64 65 67 68 70 71 73 74 75 75 76 77 77 76 75 75 75 75 75 72 68 65 62 59 57 55 53 52 52
42 45 47 47 47 47 48 48 50 51 52 54 56 56 57 57 58 58 58 57 55 54 54 53 53 54 54 54 56 58 59 61 62 64 65 66 67 68 70 71 73 73 74 74 75 75 74 73 73 74 74 74 73 70 68 66 62 59 58 56 55 54 54
40 44 47 47 47 47 48 50 52 53 54 55 56 57 56 56 56 56 56 55 54 54 53 53 54 55 55 55 57 59 61 62 64 65 65 66 68 69 70 71 72 73 73 73 73 73 72 71 72 72 73 72 70 68 67 65 62 59 57 56 56 55 55
39 43 48 50 50 50 50 52 53 54 54 56 56 56 55 54 55 55 55 55 54 54 54 54 55 56 56 57 59 61 63 64 65 65 66 67 68 69 70 71 72 72 72 71 71 70 70 70 70 70 71 70 68 66 64 61 58 55 53 53 53 53 52
43 48 52 54 54 53 52 53 54 56 56 56 55 53 53 53 54 55 55 55 55 55 55 56 57 57 57 59 61 63 64 65 66 66 67 67 68 69 69 71 71 71 70 69 69 68 68 68 68 68 68 67 65 65 63 58 55 52 50 49 49 49 49
46 50 54 56 56 56 56 57 57 57 56 54 52 52 53 54 55 55 56 56 55 56 56 57 58 58 59 61 63 64 65 66 66 67 67 67 68 68 69 70 70 69 68 67 67 66 66 67 67 67 66 65 63 63 60 56 53 51 50 49 48 48 47
47 51 56 58 58 58 58 57 56 55 52 51 51 52 54 55 55 56 56 56 56 57 58 59 59 60 61 63 64 64 65 66 67 66 66 67 67 67 68 69 69 66 65 65 65 65 66 66 66 66 65 64 63 62 59 55 52 51 50 49 48 47 47
46 51 55 58 57 56 55 54 53 52 52 53 53 54 55 55 56 56 57 57 57 58 59 60 61 61 63 64 64 65 66 67 67 66 66 66 67 67 68 68 66 63 62 62 63 64 65 65 65 64 64 63 63 62 59 55 52 50 49 49 48 48 47
45 49 54 56 56 55 54 53 52 53 55 55 55 56 57 57 57 57 58 59 59 60 61 62 63 63 64 64 64 65 66 66 66 66 65 66 66 67 68 67 64 60 59 60 62 63 64 64 63 63 62 63 63 62 59 55 52 50 49 49 49 48 47

ECMWFFLT1_250_spd_117.txt.gz
Wind_Speed
39 36 34 35 35 36 38 39 40 41 42 43 43 44 45 46 47 47 46 45 45 45 45 44 44 45 45 46 47 48 50 52 54 56 58 60 61 62 63 63 64 65 66 67 68 69 69 67 66 64 65 66 68 69 70 71 71 71 71 71 71 71 71
40 34 33 35 38 42 45 44 42 42 43 44 44 45 45 46 47 47 46 45 46 45 44 44 44 45 46 47 48 50 52 55 57 59 60 61 62 62 63 63 64 65 66 68 69 69 68 67 68 68 69 69 70 71 71 71 71 71 72 72 72 72 72
43 40 41 44 47 48 48 46 44 43 43 44 45 45 46 47 47 47 46 46 45 44 43 44 45 46 47 49 51 53 55 57 58 59 60 61 62 62 63 63 64 66 67 68 68 67 67 68 70 71 72 72 72 72 72 72 72 72 72 73 73 73 74
44 44 46 47 47 46 45 44 43 42 43 43 44 45 47 47 47 47 46 45 43 43 44 45 46 48 50 52 53 55 56 57 58 59 60 61 61 62 63 64 66 67 67 67 66 66 67 69 71 72 73 73 72 72 72 73 73 73 74 74 75 75 75
42 44 46 47 48 48 47 45 42 42 42 42 44 45 46 47 46 45 44 43 43 43 45 47 48 50 52 53 54 55 56 57 59 59 60 61 62 64 65 66 67 67 66 65 65 67 69 71 72 73 73 73 73 73 73 73 74 75 75 76 76 76 77
45 47 49 49 49 48 46 44 42 40 40 41 42 43 44 44 43 43 42 42 43 45 47 49 50 51 52 54 55 56 57 58 59 60 61 63 64 66 66 67 67 66 65 65 66 68 70 71 72 72 73 73 74 74 74 74 75 76 77 77 78 79 79
47 48 49 48 48 46 44 41 38 37 38 39 40 41 41 41 41 42 42 43 45 46 48 50 51 52 53 55 56 57 58 60 61 62 63 65 66 67 67 66 65 64 65 66 68 69 70 71 71 72 73 74 75 76 76 76 77 78 79 79 80 81 81
43 45 46 47 46 44 39 36 35 35 37 38 39 40 41 41 42 42 43 45 46 47 49 50 51 53 54 55 57 58 60 61 62 63 65 66 67 67 66 65 64 65 66 68 69 69 70 70 70 71 73 74 76 77 78 78 78 79 79 81 82 82 82
44 45 46 45 43 39 36 34 34 36 37 39 40 41 42 43 43 44 45 46 47 48 50 51 52 54 55 56 58 60 61 62 63 65 65 66 65 65 64 64 64 66 67 68 69 69 69 69 70 71 72 73 75 77 79 80 80 80 81 81 83 85 85
46 46 45 44 41 38 36 35 37 39 40 42 43 44 44 45 45 46 47 48 49 50 51 52 54 55 57 58 60 61 62 63 64 65 64 64 63 63 63 64 66 67 68 68 68 68 69 69 70 71 72 72 73 75 77 79 80 81 82 82 83 85 86
45 45 45 43 41 39 39 40 41 43 44 44 45 46 47 47 48 49 49 50 51 51 53 54 55 57 58 60 61 62 63 64 64 63 62 62 61 62 63 65 66 67 67 68 68 68 69 69 70 70 71 71 72 73 75 78 79 80 81 83 84 83 83
45 45 44 43 42 41 42 43 44 45 45 46 46 48 49 50 50 51 51 51 52 53 55 56 58 59 60 61 62 63 64 63 62 61 60 60 61 62 64 65 66 67 67 67 68 68 68 69 69 69 69 70 71 73 74 77 80 81 81 82 82 81 80
46 44 43 42 42 42 42 43 44 45 46 47 48 49 50 51 51 52 52 53 54 56 58 59 60 61 62 63 63 63 62 61 60 59 59 60 62 63 64 65 66 67 67 67 67 67 67 67 68 68 68 69 71 73 75 77 80 82 82 81 80 79 78
44 44 44 43 43 43 43 44 45 47 48 49 50 51 52 53 53 54 54 55 57 58 59 60 61 62 63 63 62 61 60 58 57 58 59 61 62 64 65 66 66 66 66 66 66 66 66 66 67 68 69 70 72 73 75 77 79 81 82 81 79 78 76
45 45 45 45 45 45 45 47 48 49 50 51 52 53 54 55 55 56 57 58 59 60 61 62 62 63 62 61 59 58 57 56 57 59 60 62 63 64 65 66 66 65 64 64 64 65 65 66 67 68 70 72 73 74 76 77 78 78 79 78 76 75 74
47 47 47 47 47 47 48 49 50 51 52 53 54 55 56 56 57 58 59 60 61 62 62 62 62 61 59 57 56 56 56 56 58 60 61 63 64 65 66 65 64 63 62 62 63 64 65 66 68 70 71 73 74 76 77 77 76 76 75 74 73 72 73
48 48 49 49 50 50 51 51 52 53 54 55 55 56 57 58 59 60 60 61 62 62 61 61 60 58 56 54 54 55 56 58 59 61 62 64 65 65 64 63 62 61 61 61 62 64 65 67 69 71 72 74 76 77 77 77 76 74 73 72 72 72 72
49 50 50 51 51 52 52 53 54 55 55 56 56 57 58 59 60 60 60 60 60 60 59 58 57 54 53 53 54 56 57 59 60 62 63 64 64 63 62 60 59 60 60 61 63 64 66 68 70 72 74 76 77 78 78 77 75 73 72 71 71 72 72
50 51 51 51 52 52 53 54 54 55 56 56 57 58 59 59 59 59 58 58 58 57 56 55 54 53 52 53 55 57 58 60 61 62 63 63 62 60 59 58 58 59 60 62 64 65 67 69 71 73 75 77 78 78 78 77 75 74 72 71 72 72 72
50 51 51 51 51 52 53 54 55 56 56 56 57 58 58 58 57 56 56 56 55 54 53 53 52 52 52 54 56 58 59 60 61 62 62 61 59 57 57 57 58 59 61 63 65 67 68 70 72 75 77 78 78 78 78 77 76 73 71 71 72 72 71
50 51 51 51 52 53 54 55 55 56 56 55 55 56 55 55 54 53 53 53 52 51 51 52 52 52 53 54 57 58 59 60 61 61 60 58 57 56 56 57 58 60 62 64 66 68 70 72 74 75 78 79 79 78 78 77 75 72 70 71 71 71 69
49 50 50 51 51 52 53 53 54 53 53 53 52 52 52 51 50 49 50 50 50 50 51 52 52 52 53 55 57 57 59 60 60 59 57 56 55 55 56 57 59 61 63 66 68 69 71 72 74 76 78 79 79 78 78 76 74 71 70 70 69 68 67
47 48 49 49 49 50 50 50 50 50 50 50 50 49 48 48 47 47 48 49 49 50 51 52 52 53 54 55 56 57 58 58 57 57 56 55 55 56 57 58 61 63 66 68 69 70 71 72 73 75 77 78 78 77 76 75 72 70 70 69 67 65 63
46 46 46 47 47 47 47 48 48 48 48 48 48 47 47 46 46 47 47 48 49 50 51 52 53 54 55 56 56 56 56 56 56 56 55 55 56 57 58 60 63 66 68 69 70 71 72 72 74 75 77 78 77 75 74 72 70 70 70 68 65 62 60
43 43 44 44 45 45 46 47 47 47 47 47 47 46 46 45 46 46 47 48 49 50 52 54 55 56 56 55 55 55 55 55 56 56 55 56 57 58 60 62 65 67 69 70 70 71 72 73 74 76 78 78 77 75 72 70 69 69 69 66 64 61 57
42 42 42 42 43 44 45 45 46 46 45 45 45 44 43 44 45 46 47 48 50 52 54 55 56 57 56 54 54 54 55 55 56 56 56 57 59 60 62 64 67 69 70 70 71 71 72 73 74 76 78 78 76 74 72 71 70 69 68 65 63 60 56
40 39 39 41 42 42 43 43 43 43 43 43 44 44 44 44 46 47 47 49 52 54 55 56 57 57 55 54 54 54 55 56 56 57 57 59 60 62 63 66 68 69 70 71 71 71 71 73 75 77 77 77 76 74 73 72 72 71 69 66 64 60 56
37 37 38 40 40 39 39 40 41 41 42 43 44 45 44 44 45 46 48 51 53 54 56 58 58 56 54 54 54 55 56 56 57 57 58 60 61 63 65 67 68 70 70 71 71 71 71 73 75 76 76 75 74 73 72 72 72 71 69 67 64 61 57
33 34 35 35 35 36 37 40 41 43 44 45 47 48 47 45 46 49 51 53 54 55 58 60 58 55 54 55 55 56 57 57 57 58 59 61 63 64 66 68 69 70 71 71 70 70 71 72 74 74 74 74 73 73 72 72 72 71 68 66 65 62 59
30 31 34 35 37 39 41 43 46 47 48 50 52 53 53 52 52 52 53 54 56 58 60 59 56 55 56 56 56 56 57 58 58 59 61 63 64 65 67 68 69 70 70 70 70 70 71 72 73 72 71 72 72 72 73 73 73 71 69 67 66 63 60
34 38 41 43 45 46 46 47 50 52 54 55 57 58 58 56 54 53 54 56 59 60 59 57 56 57 57 57 57 58 58 59 60 61 62 64 65 66 67 68 69 70 70 69 69 69 70 71 71 70 69 70 71 71 72 73 73 71 69 68 67 64 62
37 43 47 48 49 50 50 51 54 57 58 59 60 61 60 57 55 56 58 59 59 58 57 56 57 58 59 59 59 59 59 60 61 62 63 64 65 66 68 68 69 69 69 68 68 69 70 70 69 67 66 67 69 70 70 70 71 70 68 67 66 64 61
35 42 47 48 49 51 52 53 56 59 60 60 61 62 60 59 58 59 59 58 56 56 56 57 59 60 60 61 60 60 61 61 62 63 63 65 66 67 68 68 69 69 68 68 68 68 69 69 67 64 63 64 67 68 68 68 68 67 66 65 64 62 60
37 42 46 48 49 50 50 49 52 57 61 62 63 62 61 60 60 59 58 56 55 56 57 58 59 60 61 61 61 62 62 62 63 63 64 65 66 67 68 68 68 68 68 67 67 68 68 68 65 61 60 61 64 66 66 66 66 66 65 64 63 61 59
39 42 44 45 47 48 48 50 53 59 64 65 63 61 60 59 58 57 56 56 56 57 58 59 60 60 61 62 62 63 63 63 63 63 64 65 66 67 67 68 68 68 67 66 67 67 67 66 63 60 58 59 62 65 65 65 65 65 64 63 62 60 58
40 41 41 43 45 46 48 51 54 60 65 64 61 59 57 57 57 57 57 57 57 58 58 59 60 61 62 63 63 64 64 64 64 64 64 65 65 66 67 67 67 67 66 66 66 67 67 65 62 59 57 58 61 64 64 64 64 64 64 63 62 60 58
40 41 42 43 44 46 48 49 52 59 64 62 59 57 57 57 58 58 58 58 58 58 59 60 61 62 62 63 64 65 66 66 65 65 65 65 65 65 66 66 66 65 65 65 66 66 66 64 60 57 56 56 59 62 63 63 63 63 63 63 62 61 58

ECMWFFLT1_250_spd_123.txt.gz
Wind_Speed
44 42 42 44 47 50 52 53 55 56 56 54 53 53 51 45 43 45 47 48 49 49 49 51 52 54 53 50 47 45 43 42 42 43 45 47 47 47 48 50 53 55 57 58 59 60 62 64 66 67 68 68 68 67 66 66 67 68 69 70 71 71 70
47 45 45 48 52 55 56 56 57 57 54 50 50 50 46 42 43 46 48 49 50 50 51 53 54 54 52 49 46 43 41 40 41 43 44 46 47 49 51 53 55 57 59 60 62 64 64 65 66 67 67 67 66 66 67 67 68 70 71 72 71 70 69
51 51 52 53 55 55 55 54 53 52 48 45 46 46 44 44 45 47 48 50 51 51 53 54 53 52 50 48 45 41 40 40 41 43 45 47 51 53 55 56 57 60 62 64 65 66 66 67 67 66 65 64 64 65 67 67 68 70 70 70 69 69 68
51 52 53 54 55 55 54 52 50 48 45 43 45 45 44 45 46 48 49 50 51 52 53 53 51 51 50 47 43 41 40 41 43 46 49 52 55 56 57 58 60 62 65 66 67 67 68 68 67 66 64 64 64 65 67 68 68 68 68 67 67 68 68
51 52 54 55 55 55 54 52 52 52 49 47 48 48 47 46 46 47 49 50 51 52 52 52 51 52 49 44 41 42 43 45 48 51 54 55 56 57 59 61 63 65 67 67 68 68 68 67 65 64 64 64 65 65 67 68 68 67 67 67 68 68 69
55 57 57 57 57 56 54 52 52 52 51 50 50 49 49 48 47 48 48 50 52 52 52 52 52 51 48 44 43 45 48 50 52 54 55 56 58 60 62 63 65 67 67 68 68 68 66 64 64 64 64 65 66 66 66 66 67 67 67 68 69 70 71
59 60 59 59 58 57 55 53 52 50 49 49 49 48 48 48 49 50 51 52 52 53 53 53 52 50 49 48 49 50 52 53 54 55 56 58 60 62 63 65 66 67 68 68 67 66 64 63 63 63 64 65 67 67 66 65 66 68 68 69 70 73 75
59 59 58 57 56 56 55 53 51 49 48 48 48 48 48 50 51 51 52 53 53 54 54 53 52 51 51 51 52 53 54 54 55 57 59 60 62 63 65 66 67 67 67 66 65 63 62 62 63 63 64 65 66 66 66 66 66 68 69 71 72 75 77
56 56 55 54 53 53 52 50 49 48 48 48 48 49 51 51 51 51 52 54 55 55 54 53 52 52 53 53 54 55 55 56 57 59 61 62 63 65 66 66 67 66 65 63 62 61 61 62 62 64 65 66 65 65 66 67 67 68 70 73 75 77 78
52 53 52 52 52 51 50 49 48 47 48 48 48 50 50 50 50 52 53 55 55 55 54 53 53 54 54 54 55 56 56 57 59 61 62 64 65 66 66 66 66 64 62 60 59 60 60 61 63 65 65 65 65 66 67 68 69 70 72 75 77 79 80
52 52 51 51 52 51 50 48 47 47 49 48 48 49 48 48 50 52 54 54 54 54 54 54 55 56 55 55 56 57 58 59 61 63 64 64 65 65 65 64 62 60 59 58 58 59 61 62 64 65 65 65 65 66 67 68 70 72 74 76 79 80 81
51 52 52 52 52 51 51 49 48 48 48 47 47 48 48 49 51 53 54 54 54 55 55 56 57 57 55 56 57 59 60 62 63 63 64 64 64 64 62 60 58 58 57 57 58 60 61 63 64 64 64 65 66 67 67 69 71 74 76 78 79 80 81
51 51 51 51 51 50 50 49 48 47 46 46 47 48 49 50 52 54 55 56 56 56 57 58 58 57 56 57 59 61 62 62 63 64 64 63 62 60 58 57 56 56 56 57 58 61 63 64 64 64 65 65 66 67 68 70 72 75 77 78 79 79 80
49 49 50 49 49 48 48 47 47 47 47 48 49 50 51 52 54 55 56 57 58 58 59 60 59 57 58 59 60 61 62 62 63 62 61 59 58 56 55 55 55 55 55 57 59 61 63 63 63 65 66 66 67 68 70 72 74 76 77 78 79 78 79
45 46 46 46 46 46 47 47 47 47 49 50 51 52 52 54 55 57 58 59 59 60 61 60 59 58 59 60 61 62 62 62 60 59 57 56 55 53 53 53 53 54 56 57 59 62 63 63 64 65 67 67 68 69 71 73 75 76 77 78 78 78 78
42 43 44 44 45 45 46 47 48 48 49 50 52 52 53 55 56 58 59 60 60 61 60 59 58 59 59 60 61 61 60 58 56 55 54 53 52 52 52 53 54 55 57 59 61 62 62 63 64 66 67 67 68 69 71 73 74 76 77 77 77 77 77
41 41 42 43 44 44 45 47 48 49 50 51 52 54 55 56 57 58 59 59 59 59 58 58 58 58 59 59 59 58 56 54 53 52 52 51 51 51 53 55 56 57 59 60 61 62 62 63 65 66 67 67 68 69 71 72 74 75 76 76 76 76 76
40 40 41 41 42 43 43 45 46 48 50 51 53 54 55 56 56 57 56 56 56 56 56 57 57 57 57 56 55 53 52 51 49 49 50 50 51 53 55 56 57 58 60 61 61 62 63 64 66 67 67 67 68 70 71 72 74 75 75 74 75 75 75
39 39 39 40 40 41 41 42 44 46 47 49 51 52 52 53 53 53 53 53 54 54 55 55 55 54 53 52 51 50 48 47 47 50 51 51 53 55 56 57 58 60 62 61 61 63 64 65 66 67 67 67 68 70 71 73 75 76 75 74 73 74 74
39 39 39 39 39 39 40 41 41 43 44 46 47 47 48 48 49 49 50 51 51 52 52 52 52 51 50 49 48 47 45 47 50 52 52 52 54 55 56 57 59 61 62 62 62 64 65 66 66 67 68 68 69 71 72 74 76 76 74 73 72 73 73
40 39 39 39 39 39 39 39 40 41 42 42 43 44 45 46 46 47 48 48 48 49 49 49 49 49 48 47 45 45 47 50 53 54 53 54 55 56 57 58 60 62 63 63 64 65 66 67 67 68 69 69 70 72 73 75 76 75 73 72 72 72 73
40 40 39 39 39 39 39 39 39 39 40 40 41 42 43 43 44 44 44 44 45 45 46 47 47 47 47 47 48 50 52 55 56 56 55 56 57 57 58 59 61 63 64 64 65 67 67 67 68 68 70 70 72 73 74 76 77 75 72 71 71 71 73
41 39 39 38 38 38 38 39 38 38 38 39 40 40 41 41 41 40 40 40 41 43 45 46 47 48 50 52 54 56 56 58 59 58 59 59 59 58 58 60 63 64 64 65 67 67 67 68 69 70 71 72 72 73 75 76 77 74 71 70 70 70 72
39 38 37 36 36 36 36 37 37 37 38 39 39 39 40 39 38 37 37 39 41 43 45 47 49 53 55 57 59 59 60 61 61 61 61 61 59 58 59 61 63 63 64 66 67 67 68 69 70 71 72 72 73 74 76 77 77 74 71 69 69 69 71
38 36 36 36 37 36 36 38 39 39 39 40 40 40 39 36 34 35 37 38 41 45 48 49 53 56 59 61 62 63 63 64 63 63 62 60 59 59 61 62 63 64 65 66 67 68 69 70 71 72 73 73 74 75 76 77 75 72 70 69 68 68 70
37 37 37 37 38 37 36 36 38 39 40 42 43 42 40 37 36 37 37 39 43 48 51 52 55 58 60 62 64 66 66 66 65 64 62 60 60 61 62 63 63 64 65 66 68 69 70 71 72 72 73 74 75 76 77 76 73 71 69 68 67 67 68
37 37 38 37 36 36 35 35 36 37 39 42 44 44 42 41 41 40 40 42 46 49 51 54 57 59 62 64 67 68 68 67 65 64 63 63 63 63 63 64 63 63 65 67 69 70 71 71 72 72 73 74 75 77 77 74 71 70 69 68 66 66 67
38 37 38 37 36 35 36 37 37 36 36 38 40 42 42 42 42 42 43 46 48 50 53 57 60 62 64 67 69 70 70 68 66 65 65 66 66 65 64 64 63 64 66 68 70 71 71 71 71 72 72 74 75 76 75 71 69 68 68 67 66 65 65
38 38 38 37 36 36 37 37 37 36 34 34 35 38 40 41 43 44 47 49 50 52 56 61 64 66 67 69 71 71 70 68 68 68 69 69 67 66 65 64 64 66 68 70 71 72 72 72 72 72 72 74 75 74 72 69 68 67 66 66 66 65 64
38 38 38 37 37 37 37 37 36 35 34 33 35 38 41 43 46 47 49 50 51 54 59 64 66 68 70 71 72 71 70 69 69 71 71 70 67 65 65 65 66 68 70 72 73 73 73 73 73 73 74 74 73 72 70 69 67 66 66 66 66 66 65
39 38 37 37 38 38 37 36 36 35 34 36 39 41 41 43 46 48 48 48 50 56 61 64 66 68 71 72 72 71 70 70 71 73 72 69 66 65 65 66 68 70 71 73 74 75 75 75 74 74 74 73 71 70 69 68 67 65 65 66 67 67 66
39 37 38 38 39 39 38 38 38 38 37 38 41 41 41 42 44 44 43 44 49 57 63 65 66 68 70 71 71 71 70 71 73 73 70 67 65 65 66 68 70 71 72 74 76 77 77 77 76 75 73 70 69 68 68 68 66 64 64 66 68 69 69
39 38 39 39 39 40 40 40 40 40 39 39 40 40 42 45 45 43 42 45 52 60 64 65 66 67 69 70 71 71 72 73 73 70 68 66 66 66 68 69 71 71 73 75 77 79 80 80 78 75 71 70 69 67 67 66 64 63 63 66 68 69 69
40 40 40 40 40 41 41 41 41 41 41 42 41 41 43 47 50 51 51 53 58 61 62 63 64 65 68 72 73 74 73 72 70 68 67 67 67 68 69 70 71 71 73 75 77 80 82 81 79 74 72 70 69 67 65 64 63 62 62 65 67 68 68
43 42 42 42 41 42 42 43 43 43 43 43 43 42 43 46 50 53 55 57 58 60 60 61 63 67 72 75 75 74 72 69 68 67 67 68 68 69 70 70 71 72 73 75 77 79 81 80 78 75 72 70 68 66 65 64 63 63 63 64 66 67 66
46 45 43 43 43 43 44 44 45 45 46 45 45 44 44 44 46 50 53 56 58 60 62 64 67 70 72 73 72 70 68 67 67 67 68 68 69 70 70 70 71 72 74 76 77 78 78 78 76 73 70 69 68 66 64 64 64 64 64 64 65 65 65
48 46 44 44 44 44 45 46 46 47 47 47 47 46 46 45 46 47 49 51 54 56 59 61 64 66 66 67 66 66 66 66 67 67 68 69 70 70 70 71 71 73 75 76 76 76 75 76 75 72 71 70 69 66 64 64 65 66 65 64 64 64 65